Weather History for Telfer, WE

Change the Weather History Date:

Sunday, October 23, 2011

  Actual Average Record
Temperature  
Mean Temperature 84 °F -  
Max Temperature 97 °F - - ()
Min Temperature 71 °F - - ()
Cooling Degree Days 19    
Growing Degree Days 34 (Base 50)    
Moisture  
Dew Point 51 °F    
Average Humidity 32    
Maximum Humidity 69    
Minimum Humidity 11    
Precipitation  
Precipitation 0.00 in - - ()
Sea Level Pressure  
Sea Level Pressure 29.85 in    
Wind  
Wind Speed 7 mph ()    
Max Wind Speed 18 mph    
Max Gust Speed -    
T = Trace of Precipitation, MM = Missing Value Source: Averaged Metar Reports

Daily Weather History Graph

Daily Weather History Graph

Search for Another Location

Airport:

Trip Planner

Search our weather history database for the weather conditions in past years. The results will help you decide how hot, cold, wet, or windy it might be!

Date:

Astronomy

Oct. 23, 2011 Rise Set
Actual Time 5:13 AM AWST 5:57 PM AWST
Civil Twilight 4:50 AM AWST 6:20 PM AWST
Nautical Twilight 4:24 AM AWST 6:47 PM AWST
Astronomical Twilight 3:56 AM AWST 7:14 PM AWST
Moon 2:07 AM AWST (10/23) 2:15 PM AWST (10/23)
Length of Visible Light 13h 29m
Length of Day
12h 43m
Waning Crescent, 19% of the Moon is Illuminated
Oct 23
Waning Crescent
Oct 27
New
Nov 3
First Quarter
Nov 11
Full
Nov 18
Last Quarter

Hourly Weather History & Observations

Time (AWST) Temp. Heat Index Dew Point Humidity Pressure Visibility Wind Dir Wind Speed Gust Speed Precip Events Conditions
12:00 AM 77 °F - 60 °F 46% 29.83 in - West 8.1 mph - -  
12:00 AM 77.0 °F - 60.8 °F 57% 29.86 in - West 8.1 mph - N/A   Unknown
1:00 AM 75.2 °F - 60.8 °F 61% 29.86 in - NW 5.8 mph - N/A   Unknown
2:00 AM 74 °F - 58 °F 48% 29.80 in - NW 5.8 mph - -  
2:00 AM 75.2 °F - 59.0 °F 57% 29.83 in - NW 5.8 mph - N/A   Unknown
3:00 AM 75 °F - 58 °F 46% 29.81 in - West 6.9 mph - -  
3:00 AM 75.2 °F - 59.0 °F 57% 29.86 in - West 6.9 mph - N/A   Unknown
4:00 AM 73.4 °F - 60.8 °F 65% 29.86 in - West 5.8 mph - N/A   Unknown
5:00 AM 72 °F - 61 °F 60% 29.83 in - SW 1.2 mph - -  
5:00 AM 71.6 °F - 60.8 °F 69% 29.89 in - SW 1.2 mph - N/A   Unknown
6:00 AM 76 °F - 57 °F 42% 29.86 in - SSW 10.4 mph - -  
6:00 AM 77.0 °F - 57.2 °F 50% 29.89 in - SSW 10.4 mph - N/A   Unknown
7:00 AM 80.6 °F 80.3 °F 53.6 °F 39% 29.92 in - South 11.5 mph - N/A   Unknown
8:00 AM 85 °F - 49 °F 19% 29.88 in - SSE 15.0 mph - -  
8:00 AM 84.2 °F - 48.2 °F 29% 29.92 in - SSE 15.0 mph - N/A   Unknown
9:00 AM 89 °F - 47 °F 15% 29.88 in - South 18.4 mph - -  
9:00 AM 89.6 °F - 48.2 °F 24% 29.92 in - South 18.4 mph - N/A   Unknown
10:00 AM 91.4 °F - 44.6 °F 20% 29.92 in - South 15.0 mph - N/A   Unknown
11:00 AM 93 °F - 45 °F 11% 29.86 in - South 12.7 mph - -  
11:00 AM 93.2 °F - 44.6 °F 19% 29.89 in - South 12.7 mph - N/A   Unknown
12:00 PM 93 °F - 45 °F 11% 29.83 in - SE 10.4 mph - -  
12:00 PM 93.2 °F - 44.6 °F 19% 29.89 in - SE 10.4 mph - N/A   Unknown
1:00 PM 95.0 °F - 46.4 °F 19% 29.86 in - South 9.2 mph - N/A   Unknown
2:00 PM 95 °F - 46 °F 11% 29.78 in - South 4.6 mph - -  
2:00 PM 95.0 °F - 46.4 °F 19% 29.83 in - South 4.6 mph - N/A   Unknown
3:00 PM 96 °F - 47 °F 11% 29.77 in - ENE 2.3 mph - -  
3:00 PM 95.0 °F - 46.4 °F 19% 29.80 in - ENE 2.3 mph - N/A   Unknown
4:00 PM 96.8 °F - 46.4 °F 18% 29.80 in - West 1.2 mph - N/A   Unknown
5:00 PM 94 °F - 46 °F 11% 29.76 in - SSE 5.8 mph - -  
5:00 PM 95.0 °F - 46.4 °F 19% 29.80 in - SSE 5.8 mph - N/A   Unknown
6:00 PM 91 °F - 48 °F 14% 29.78 in - SSE 8.1 mph - -  
6:00 PM 91.4 °F - 48.2 °F 23% 29.83 in - SSE 8.1 mph - N/A   Unknown
7:00 PM 87.8 °F - 50.0 °F 27% 29.86 in - SSE 8.1 mph - N/A   Unknown
8:00 PM 85 °F - 51 °F 20% 29.82 in - SSE 8.1 mph - -  
8:00 PM 84.2 °F - 50.0 °F 30% 29.86 in - SSE 8.1 mph - N/A   Unknown
9:00 PM 83 °F - 50 °F 22% 29.85 in - South 6.9 mph - -  
9:00 PM 82.4 °F - 50.0 °F 32% 29.89 in - South 6.9 mph - N/A   Unknown
10:00 PM 82.4 °F - 50.0 °F 32% 29.89 in - SSE 9.2 mph - N/A   Unknown
11:00 PM 78 °F - 53 °F 31% 29.83 in - ESE 5.8 mph - -  
11:00 PM 78.8 °F - 53.6 °F 42% 29.89 in - ESE 5.8 mph - N/A   Unknown